| time (UTC) | temp F | wind direction | speed knots | gust knots | rain 1hr in | rain 24hr in | rain mn in | humidity % | barometer mb |
| 20260509091544 | 68 | 302 | 5.2 | 0.0 | 0.00 | 0.00 | 0.00 | 54 | 1014.4 |
| 20260509091054 | 68 | 351 | 6.1 | 0.0 | 0.00 | 0.00 | 0.00 | 54 | 1014.4 |
| 20260509090536 | 69 | 304 | 6.1 | 0.0 | 0.00 | 0.00 | 0.00 | 53 | 1014.4 |
| 20260509090043 | 69 | 314 | 7.0 | 0.0 | 0.00 | 0.00 | 0.00 | 54 | 1014.4 |
| 20260509085532 | 69 | 294 | 6.1 | 0.0 | 0.00 | 0.00 | 0.00 | 53 | 1014.4 |
| 20260509085058 | 69 | 318 | 5.2 | 0.0 | 0.00 | 0.00 | 0.00 | 53 | 1014.3 |
| 20260509084525 | 69 | 318 | 6.1 | 0.0 | 0.00 | 0.00 | 0.00 | 54 | 1014.3 |
| 20260509084033 | 69 | 314 | 7.0 | 0.0 | 0.00 | 0.00 | 0.00 | 53 | 1014.3 |
| 20260509083534 | 68 | 311 | 7.8 | 0.0 | 0.00 | 0.00 | 0.00 | 53 | 1014.1 |
| 20260509083043 | 69 | 312 | 7.0 | 0.0 | 0.00 | 0.00 | 0.00 | 52 | 1014.1 |
| 20260509082530 | 69 | 311 | 6.1 | 0.0 | 0.00 | 0.00 | 0.00 | 50 | 1014.1 |
| 20260509082035 | 69 | 302 | 7.0 | 0.0 | 0.00 | 0.00 | 0.00 | 50 | 1014.0 |
| 20260509081544 | 69 | 320 | 6.1 | 0.0 | 0.00 | 0.00 | 0.00 | 49 | 1014.0 |
| 20260509081053 | 70 | 301 | 4.3 | 0.0 | 0.00 | 0.00 | 0.00 | 37 | 1014.0 |
| 20260509080536 | 71 | 317 | 3.5 | 0.0 | 0.00 | 0.00 | 0.00 | 45 | 1014.0 |
| 20260509080040 | 71 | 284 | 4.3 | 0.0 | 0.00 | 0.00 | 0.00 | 36 | 1014.0 |
| 20260509075528 | 71 | 285 | 5.2 | 0.0 | 0.00 | 0.00 | 0.00 | 38 | 1014.0 |
| 20260509075055 | 71 | 320 | 5.2 | 0.0 | 0.00 | 0.00 | 0.00 | 44 | 1014.2 |
| 20260509074602 | 71 | 312 | 5.2 | 0.0 | 0.00 | 0.00 | 0.00 | 38 | 1014.2 |
| 20260509074049 | 70 | 243 | 6.1 | 0.0 | 0.00 | 0.00 | 0.00 | 36 | 1014.1 |
| 20260509073532 | 70 | 293 | 6.1 | 0.0 | 0.00 | 0.00 | 0.00 | 39 | 1014.0 |
| 20260509073102 | 70 | 360 | 7.0 | 0.0 | 0.00 | 0.00 | 0.00 | 48 | 1014.0 |
| 20260509072528 | 70 | 336 | 7.8 | 0.0 | 0.00 | 0.00 | 0.00 | 49 | 1014.0 |
| 20260509072029 | 70 | 320 | 7.0 | 0.0 | 0.00 | 0.00 | 0.00 | 48 | 1013.9 |
| 20260509071559 | 70 | 298 | 7.8 | 0.0 | 0.00 | 0.00 | 0.00 | 50 | 1013.9 |
| 20260509071046 | 69 | 329 | 7.0 | 0.0 | 0.00 | 0.00 | 0.00 | 50 | 1013.9 |
| 20260509070531 | 69 | 339 | 7.8 | 0.0 | 0.00 | 0.00 | 0.00 | 50 | 1014.2 |
| 20260509070100 | 69 | 350 | 9.6 | 0.0 | 0.00 | 0.00 | 0.00 | 49 | 1014.2 |
| 20260509065547 | 69 | 316 | 8.7 | 0.0 | 0.00 | 0.00 | 0.00 | 48 | 1014.2 |
| 20260509065031 | 70 | 328 | 7.8 | 0.0 | 0.00 | 0.00 | 0.00 | 50 | 1014.4 |
| 20260509064538 | 70 | 305 | 6.1 | 0.0 | 0.00 | 0.00 | 0.00 | 48 | 1014.4 |
| 20260509064043 | 71 | 298 | 2.6 | 0.0 | 0.00 | 0.00 | 0.00 | 47 | 1014.4 |
| 20260509063526 | 71 | 277 | 2.6 | 0.0 | 0.00 | 0.00 | 0.00 | 35 | 1014.4 |
| 20260509063030 | 70 | 275 | 5.2 | 0.0 | 0.00 | 0.00 | 0.00 | 44 | 1014.4 |
| 20260509062538 | 70 | 323 | 7.0 | 0.0 | 0.00 | 0.00 | 0.00 | 50 | 1014.4 |
| 20260509062041 | 70 | 326 | 6.1 | 0.0 | 0.00 | 0.00 | 0.00 | 47 | 1014.4 |
| 20260509061529 | 70 | 360 | 4.3 | 0.0 | 0.00 | 0.00 | 0.00 | 49 | 1014.4 |
| 20260509061037 | 70 | 347 | 3.5 | 0.0 | 0.00 | 0.00 | 0.00 | 47 | 1014.4 |
| 20260509060538 | 70 | 58 | 4.3 | 0.0 | 0.00 | 0.00 | 0.00 | 51 | 1014.4 |
| 20260509060048 | 70 | 15 | 6.1 | 0.0 | 0.00 | 0.00 | 0.00 | 50 | 1014.4 |
| 20260509055535 | 70 | 345 | 6.1 | 0.0 | 0.00 | 0.00 | 0.00 | 48 | 1014.4 |
| 20260509055040 | 70 | 1 | 5.2 | 0.0 | 0.00 | 0.00 | 0.00 | 49 | 1014.6 |
| 20260509054528 | 70 | 333 | 6.1 | 0.0 | 0.00 | 0.00 | 0.00 | 49 | 1014.6 |
| 20260509054036 | 70 | 360 | 7.0 | 0.0 | 0.00 | 0.00 | 0.00 | 49 | 1014.6 |
| 20260509053540 | 70 | 338 | 4.3 | 0.0 | 0.00 | 0.00 | 0.00 | 47 | 1014.8 |
| 20260509053026 | 70 | 333 | 4.3 | 0.0 | 0.00 | 0.00 | 0.00 | 50 | 1014.8 |
| 20260509052552 | 70 | 19 | 3.5 | 0.0 | 0.00 | 0.00 | 0.00 | 48 | 1014.8 |
| 20260509052054 | 70 | 358 | 3.5 | 0.0 | 0.00 | 0.00 | 0.00 | 50 | 1014.8 |
| 20260509051538 | 70 | 34 | 3.5 | 0.0 | 0.00 | 0.00 | 0.00 | 50 | 1014.8 |
| 20260509051054 | 69 | 360 | 3.5 | 0.0 | 0.00 | 0.00 | 0.00 | 50 | 1014.8 |
| 20260509050529 | 69 | 322 | 2.6 | 0.0 | 0.00 | 0.00 | 0.00 | 50 | 1015.0 |
| 20260509050035 | 69 | 352 | 3.5 | 0.0 | 0.00 | 0.00 | 0.00 | 50 | 1015.0 |
| 20260509045548 | 69 | 6 | 3.5 | 0.0 | 0.00 | 0.00 | 0.00 | 50 | 1015.0 |
| 20260509045047 | 68 | 342 | 4.3 | 0.0 | 0.00 | 0.00 | 0.00 | 51 | 1014.9 |
| 20260509044552 | 68 | 358 | 4.3 | 0.0 | 0.00 | 0.00 | 0.00 | 52 | 1014.9 |
| 20260509044039 | 68 | 353 | 3.5 | 0.0 | 0.00 | 0.00 | 0.00 | 52 | 1014.9 |
| 20260509043543 | 68 | 347 | 3.5 | 0.0 | 0.00 | 0.00 | 0.00 | 53 | 1015.2 |
| 20260509043051 | 68 | 300 | 2.6 | 0.0 | 0.00 | 0.00 | 0.00 | 52 | 1015.2 |
| 20260509042539 | 68 | 334 | 2.6 | 0.0 | 0.00 | 0.00 | 0.00 | 52 | 1015.2 |
| 20260509042044 | 67 | 293 | 3.5 | 0.0 | 0.00 | 0.00 | 0.00 | 53 | 1015.1 |
| 20260509041552 | 67 | 293 | 3.5 | 0.0 | 0.00 | 0.00 | 0.00 | 52 | 1015.1 |
| 20260509041036 | 68 | 326 | 3.5 | 0.0 | 0.00 | 0.00 | 0.00 | 51 | 1015.1 |
| 20260509040541 | 67 | 341 | 3.5 | 0.0 | 0.00 | 0.00 | 0.00 | 51 | 1015.4 |
| 20260509040048 | 67 | 316 | 4.3 | 0.0 | 0.00 | 0.00 | 0.00 | 52 | 1015.4 |
| 20260509035536 | 67 | 324 | 5.2 | 0.0 | 0.00 | 0.00 | 0.00 | 50 | 1015.4 |
| 20260509035041 | 67 | 319 | 4.3 | 0.0 | 0.00 | 0.00 | 0.00 | 50 | 1015.3 |
| 20260509034549 | 67 | 318 | 3.5 | 0.0 | 0.00 | 0.00 | 0.00 | 51 | 1015.3 |
| 20260509034032 | 67 | 310 | 3.5 | 0.0 | 0.00 | 0.00 | 0.00 | 50 | 1015.3 |
| 20260509033536 | 67 | 340 | 4.3 | 0.0 | 0.00 | 0.00 | 0.00 | 50 | 1015.4 |
| 20260509033101 | 67 | 316 | 4.3 | 0.0 | 0.00 | 0.00 | 0.00 | 51 | 1015.4 |
| 20260509032529 | 67 | 316 | 4.3 | 0.0 | 0.00 | 0.00 | 0.00 | 51 | 1015.4 |
| 20260509032034 | 67 | 323 | 3.5 | 0.0 | 0.00 | 0.00 | 0.00 | 49 | 1015.4 |
| 20260509031541 | 67 | 322 | 3.5 | 0.0 | 0.00 | 0.00 | 0.00 | 50 | 1015.4 |
| 20260509031032 | 67 | 297 | 4.3 | 0.0 | 0.00 | 0.00 | 0.00 | 49 | 1015.4 |
| 20260509030537 | 67 | 307 | 4.3 | 0.0 | 0.00 | 0.00 | 0.00 | 48 | 1015.5 |
| 20260509030025 | 67 | 347 | 3.5 | 0.0 | 0.00 | 0.00 | 0.00 | 47 | 1015.5 |
| 20260509025531 | 67 | 308 | 3.5 | 0.0 | 0.00 | 0.00 | 0.00 | 48 | 1015.5 |
| 20260509025036 | 66 | 324 | 5.2 | 0.0 | 0.00 | 0.00 | 0.00 | 49 | 1015.5 |
| 20260509024601 | 66 | 309 | 5.2 | 0.0 | 0.00 | 0.00 | 0.00 | 48 | 1015.5 |
| 20260509024050 | 67 | 319 | 4.3 | 0.0 | 0.00 | 0.00 | 0.00 | 47 | 1015.5 |
| 20260509023533 | 67 | 257 | 3.5 | 0.0 | 0.00 | 0.00 | 0.00 | 47 | 1015.4 |
| 20260509023058 | 67 | 300 | 4.3 | 0.0 | 0.00 | 0.00 | 0.00 | 49 | 1015.4 |
| 20260509022545 | 67 | 271 | 5.2 | 0.0 | 0.00 | 0.00 | 0.00 | 50 | 1015.4 |
| 20260509022030 | 67 | 288 | 4.3 | 0.0 | 0.00 | 0.00 | 0.00 | 49 | 1015.5 |
| 20260509021559 | 67 | 269 | 4.3 | 0.0 | 0.00 | 0.00 | 0.00 | 50 | 1015.5 |
| 20260509021043 | 68 | 317 | 4.3 | 0.0 | 0.00 | 0.00 | 0.00 | 50 | 1015.5 |
| 20260509020545 | 68 | 324 | 3.5 | 0.0 | 0.00 | 0.00 | 0.00 | 49 | 1015.5 |
| 20260509020031 | 68 | 264 | 3.5 | 0.0 | 0.00 | 0.00 | 0.00 | 50 | 1015.5 |
| 20260509015539 | 68 | 278 | 3.5 | 0.0 | 0.00 | 0.00 | 0.00 | 48 | 1015.5 |
| 20260509015043 | 68 | 332 | 3.5 | 0.0 | 0.00 | 0.00 | 0.00 | 49 | 1015.4 |
| 20260509014529 | 68 | 290 | 2.6 | 0.0 | 0.00 | 0.00 | 0.00 | 49 | 1015.4 |
| 20260509014036 | 68 | 319 | 1.7 | 0.0 | 0.00 | 0.00 | 0.00 | 47 | 1015.4 |
| 20260509013538 | 68 | 328 | 1.7 | 0.0 | 0.00 | 0.00 | 0.00 | 48 | 1015.4 |
| 20260509013038 | 68 | 61 | 2.6 | 0.0 | 0.00 | 0.00 | 0.00 | 49 | 1015.4 |
| 20260509012546 | 68 | 331 | 2.6 | 0.0 | 0.00 | 0.00 | 0.00 | 52 | 1015.4 |
| 20260509012028 | 67 | 349 | 2.6 | 0.0 | 0.00 | 0.00 | 0.00 | 51 | 1015.4 |
| 20260509011534 | 67 | 313 | 2.6 | 0.0 | 0.00 | 0.00 | 0.00 | 50 | 1015.4 |
| 20260509011052 | 67 | 322 | 1.7 | 0.0 | 0.00 | 0.00 | 0.00 | 51 | 1015.4 |
| 20260509010552 | 67 | 299 | 1.7 | 0.0 | 0.00 | 0.00 | 0.00 | 52 | 1015.4 |
| 20260509010031 | 66 | 330 | 2.6 | 0.0 | 0.00 | 0.00 | 0.00 | 53 | 1015.4 |
| 20260509005534 | 66 | 325 | 2.6 | 0.0 | 0.00 | 0.00 | 0.00 | 52 | 1015.4 |
| 20260509005046 | 66 | 265 | 2.6 | 0.0 | 0.00 | 0.00 | 0.00 | 51 | 1015.3 |
| 20260509004614 | 66 | 351 | 1.7 | 0.0 | 0.00 | 0.00 | 0.00 | 53 | 1015.3 |
| 20260509004029 | 66 | 329 | 1.7 | 0.0 | 0.00 | 0.00 | 0.00 | 53 | 1015.3 |
| 20260509003541 | 65 | 330 | 1.7 | 0.0 | 0.00 | 0.00 | 0.00 | 52 | 1015.3 |
| 20260509003047 | 65 | 320 | 1.7 | 0.0 | 0.00 | 0.00 | 0.00 | 53 | 1015.3 |
| 20260509002554 | 65 | 320 | 2.6 | 0.0 | 0.00 | 0.00 | 0.00 | 51 | 1015.3 |
| 20260509002036 | 65 | 301 | 1.7 | 0.0 | 0.00 | 0.00 | 0.00 | 50 | 1015.2 |
| 20260509001557 | 66 | 297 | 0.9 | 0.0 | 0.00 | 0.00 | 0.00 | 48 | 1015.2 |
| 20260509001042 | 66 | 297 | 0.9 | 0.0 | 0.00 | 0.00 | 0.00 | 48 | 1015.2 |
| 20260509000545 | 66 | 297 | 0.9 | 0.0 | 0.00 | 0.00 | 0.00 | 47 | 1015.0 |
| 20260509000030 | 66 | 335 | 0.9 | 0.0 | 0.00 | 0.00 | 0.00 | 49 | 1015.0 |
| 20260508235536 | 66 | 326 | 0.0 | 0.0 | 0.00 | 0.00 | 0.00 | 50 | 1015.0 |
| 20260508235059 | 65 | 313 | 0.0 | 0.0 | 0.00 | 0.00 | 0.00 | 52 | 1014.9 |
| 20260508234543 | 65 | 313 | 0.0 | 0.0 | 0.00 | 0.00 | 0.00 | 53 | 1014.9 |
| 20260508234042 | 64 | 313 | 0.0 | 0.0 | 0.00 | 0.00 | 0.00 | 53 | 1014.9 |
| 20260508233543 | 63 | 313 | 0.9 | 0.0 | 0.00 | 0.00 | 0.00 | 53 | 1014.9 |
| 20260508233028 | 63 | 313 | 1.7 | 0.0 | 0.00 | 0.00 | 0.00 | 54 | 1014.9 |
| 20260508232533 | 63 | 313 | 0.9 | 0.0 | 0.00 | 0.00 | 0.00 | 54 | 1014.9 |
| 20260508232035 | 63 | 301 | 0.0 | 0.0 | 0.00 | 0.00 | 0.00 | 55 | 1014.9 |
| 20260508231539 | 62 | 301 | 0.9 | 0.0 | 0.00 | 0.00 | 0.00 | 56 | 1014.9 |
| 20260508231053 | 61 | 301 | 0.9 | 0.0 | 0.00 | 0.00 | 0.00 | 55 | 1014.9 |
| 20260508230550 | 61 | 211 | 0.9 | 0.0 | 0.00 | 0.00 | 0.00 | 58 | 1014.9 |
| 20260508230028 | 61 | 211 | 1.7 | 0.0 | 0.00 | 0.00 | 0.00 | 60 | 1014.9 |
| 20260508225537 | 60 | 211 | 0.9 | 0.0 | 0.00 | 0.00 | 0.00 | 61 | 1014.9 |
| 20260508225049 | 60 | 210 | 0.9 | 0.0 | 0.00 | 0.00 | 0.00 | 65 | 1014.8 |
| 20260508224528 | 60 | 210 | 0.9 | 0.0 | 0.00 | 0.00 | 0.00 | 68 | 1014.8 |
| 20260508224045 | 59 | 210 | 0.9 | 0.0 | 0.00 | 0.00 | 0.00 | 69 | 1014.8 |
| 20260508223608 | 59 | 210 | 0.0 | 0.0 | 0.00 | 0.00 | 0.00 | 73 | 1014.6 |
| 20260508223026 | 59 | 210 | 0.9 | 0.0 | 0.00 | 0.00 | 0.00 | 73 | 1014.6 |
| 20260508222552 | 59 | 210 | 0.9 | 0.0 | 0.00 | 0.00 | 0.00 | 73 | 1014.6 |
| 20260508222043 | 58 | 210 | 0.0 | 0.0 | 0.00 | 0.00 | 0.00 | 75 | 1014.4 |
| 20260508221550 | 58 | 210 | 0.0 | 0.0 | 0.00 | 0.00 | 0.00 | 77 | 1014.4 |
| 20260508221054 | 57 | 210 | 0.0 | 0.0 | 0.00 | 0.00 | 0.00 | 78 | 1014.4 |
| 20260508220528 | 56 | 210 | 0.0 | 0.0 | 0.00 | 0.00 | 0.00 | 79 | 1014.3 |
| 20260508220034 | 56 | 210 | 0.0 | 0.0 | 0.00 | 0.00 | 0.00 | 80 | 1014.3 |
| 20260508215541 | 56 | 210 | 0.9 | 0.0 | 0.00 | 0.00 | 0.00 | 81 | 1014.3 |
| 20260508215110 | 55 | 210 | 0.9 | 0.0 | 0.00 | 0.00 | 0.00 | 83 | 1014.2 |
| 20260508214529 | 55 | 210 | 0.0 | 0.0 | 0.00 | 0.00 | 0.00 | 84 | 1014.2 |
| 20260508214034 | 55 | 210 | 0.0 | 0.0 | 0.00 | 0.00 | 0.00 | 84 | 1014.2 |
| 20260508213545 | 55 | 210 | 0.9 | 0.0 | 0.00 | 0.00 | 0.00 | 84 | 1013.9 |
| 20260508213030 | 55 | 210 | 0.9 | 0.0 | 0.00 | 0.00 | 0.00 | 84 | 1013.9 |
| 20260508212537 | 55 | 210 | 0.0 | 0.0 | 0.00 | 0.00 | 0.00 | 83 | 1013.9 |
| 20260508212039 | 55 | 210 | 0.0 | 0.0 | 0.00 | 0.00 | 0.00 | 84 | 1013.9 |
| 20260508211539 | 55 | 210 | 0.0 | 0.0 | 0.00 | 0.00 | 0.00 | 84 | 1013.9 |
| 20260508211048 | 54 | 210 | 0.9 | 0.0 | 0.00 | 0.00 | 0.00 | 84 | 1013.9 |
| 20260508210530 | 54 | 210 | 1.7 | 0.0 | 0.00 | 0.00 | 0.00 | 84 | 1013.9 |
| 20260508210036 | 54 | 210 | 0.9 | 0.0 | 0.00 | 0.00 | 0.00 | 83 | 1013.9 |
| 20260508205542 | 55 | 209 | 0.0 | 0.0 | 0.00 | 0.00 | 0.00 | 82 | 1013.9 |
| 20260508205105 | 54 | 210 | 0.0 | 0.0 | 0.00 | 0.00 | 0.00 | 81 | 1013.7 |
| 20260508204529 | 54 | 210 | 0.0 | 0.0 | 0.00 | 0.00 | 0.00 | 81 | 1013.7 |
| 20260508204057 | 54 | 209 | 0.0 | 0.0 | 0.00 | 0.00 | 0.00 | 81 | 1013.7 |
| 20260508203534 | 54 | 210 | 0.0 | 0.0 | 0.00 | 0.00 | 0.00 | 80 | 1013.7 |
| 20260508203041 | 55 | 209 | 0.0 | 0.0 | 0.00 | 0.00 | 0.00 | 79 | 1013.7 |
| 20260508202548 | 55 | 210 | 0.9 | 0.0 | 0.00 | 0.00 | 0.00 | 79 | 1013.7 |
| 20260508202032 | 54 | 210 | 0.9 | 0.0 | 0.00 | 0.00 | 0.00 | 80 | 1013.5 |
| 20260508201539 | 54 | 210 | 0.0 | 0.0 | 0.00 | 0.00 | 0.00 | 81 | 1013.5 |
| 20260508201043 | 54 | 210 | 0.9 | 0.0 | 0.00 | 0.00 | 0.00 | 80 | 1013.5 |
| 20260508200553 | 55 | 210 | 0.0 | 0.0 | 0.00 | 0.00 | 0.00 | 78 | 1013.4 |
| 20260508200028 | 55 | 210 | 0.0 | 0.0 | 0.00 | 0.00 | 0.00 | 77 | 1013.4 |
| 20260508195536 | 55 | 210 | 0.0 | 0.0 | 0.00 | 0.00 | 0.00 | 77 | 1013.4 |
| 20260508195049 | 55 | 210 | 0.0 | 0.0 | 0.00 | 0.00 | 0.00 | 78 | 1013.3 |
| 20260508194527 | 55 | 210 | 0.0 | 0.0 | 0.00 | 0.00 | 0.00 | 77 | 1013.3 |
| 20260508194034 | 55 | 210 | 0.0 | 0.0 | 0.00 | 0.00 | 0.00 | 77 | 1013.3 |
| 20260508193606 | 56 | 210 | 0.0 | 0.0 | 0.00 | 0.00 | 0.00 | 76 | 1013.3 |
| 20260508193050 | 56 | 209 | 0.0 | 0.0 | 0.00 | 0.00 | 0.00 | 74 | 1013.3 |
| 20260508192530 | 56 | 210 | 0.9 | 0.0 | 0.00 | 0.00 | 0.00 | 74 | 1013.3 |
| 20260508192038 | 56 | 210 | 1.7 | 0.0 | 0.00 | 0.00 | 0.00 | 74 | 1013.1 |
| 20260508191605 | 56 | 210 | 1.7 | 0.0 | 0.00 | 0.00 | 0.00 | 73 | 1013.1 |
| 20260508191112 | 56 | 141 | 0.9 | 0.0 | 0.00 | 0.00 | 0.00 | 73 | 1013.1 |
| 20260508190535 | 57 | 141 | 0.9 | 0.0 | 0.00 | 0.00 | 0.00 | 72 | 1013.2 |
| 20260508190040 | 57 | 142 | 0.9 | 0.0 | 0.00 | 0.00 | 0.00 | 71 | 1013.2 |
| 20260508185545 | 57 | 141 | 0.0 | 0.0 | 0.00 | 0.00 | 0.00 | 70 | 1013.2 |
| 20260508185029 | 57 | 141 | 0.0 | 0.0 | 0.00 | 0.00 | 0.00 | 69 | 1013.1 |
| 20260508184554 | 57 | 141 | 0.0 | 0.0 | 0.00 | 0.00 | 0.00 | 68 | 1013.1 |
| 20260508184040 | 57 | 141 | 0.0 | 0.0 | 0.00 | 0.00 | 0.00 | 68 | 1013.1 |
| 20260508183526 | 57 | 141 | 0.9 | 0.0 | 0.00 | 0.00 | 0.00 | 69 | 1013.3 |
| 20260508183034 | 57 | 141 | 1.7 | 0.0 | 0.00 | 0.00 | 0.00 | 69 | 1013.3 |
| 20260508182542 | 57 | 134 | 1.7 | 0.0 | 0.00 | 0.00 | 0.00 | 69 | 1013.3 |
| 20260508182044 | 57 | 334 | 0.0 | 0.0 | 0.00 | 0.00 | 0.00 | 69 | 1012.9 |
| 20260508181530 | 58 | 334 | 0.0 | 0.0 | 0.00 | 0.00 | 0.00 | 67 | 1012.9 |
| 20260508181038 | 58 | 334 | 0.0 | 0.0 | 0.00 | 0.00 | 0.00 | 67 | 1012.9 |
| 20260508180538 | 58 | 334 | 0.9 | 0.0 | 0.00 | 0.00 | 0.00 | 67 | 1012.9 |
| 20260508180045 | 58 | 334 | 0.9 | 0.0 | 0.00 | 0.00 | 0.00 | 66 | 1012.9 |
| 20260508175554 | 58 | 334 | 0.0 | 0.0 | 0.00 | 0.00 | 0.00 | 66 | 1012.9 |
| 20260508175036 | 58 | 334 | 0.0 | 0.0 | 0.00 | 0.00 | 0.00 | 65 | 1012.8 |
| 20260508174543 | 59 | 334 | 0.9 | 0.0 | 0.00 | 0.00 | 0.00 | 64 | 1012.8 |
| 20260508174029 | 59 | 334 | 1.7 | 0.0 | 0.00 | 0.00 | 0.00 | 63 | 1012.8 |
| 20260508173533 | 59 | 334 | 3.5 | 0.0 | 0.00 | 0.00 | 0.00 | 63 | 1012.8 |
| 20260508173058 | 59 | 326 | 3.5 | 0.0 | 0.00 | 0.00 | 0.00 | 63 | 1012.8 |
| 20260508172545 | 59 | 330 | 1.7 | 0.0 | 0.00 | 0.00 | 0.00 | 64 | 1012.8 |
| 20260508172030 | 58 | 360 | 0.9 | 0.0 | 0.00 | 0.00 | 0.00 | 63 | 1012.8 |
| 20260508171537 | 58 | 97 | 1.7 | 0.0 | 0.00 | 0.00 | 0.00 | 64 | 1012.8 |
| 20260508171042 | 58 | 112 | 1.7 | 0.0 | 0.00 | 0.00 | 0.00 | 65 | 1012.8 |
| 20260508170543 | 59 | 128 | 1.7 | 0.0 | 0.00 | 0.00 | 0.00 | 63 | 1013.0 |
| 20260508170028 | 59 | 42 | 2.6 | 0.0 | 0.00 | 0.00 | 0.00 | 61 | 1013.0 |
| 20260508165558 | 59 | 358 | 4.3 | 0.0 | 0.00 | 0.00 | 0.00 | 61 | 1013.0 |
| 20260508165035 | 59 | 358 | 4.3 | 0.0 | 0.00 | 0.00 | 0.00 | 60 | 1013.4 |
| 20260508164604 | 59 | 359 | 3.5 | 0.0 | 0.00 | 0.00 | 0.00 | 60 | 1013.4 |
| 20260508164109 | 59 | 340 | 2.6 | 0.0 | 0.00 | 0.00 | 0.00 | 59 | 1013.4 |
| 20260508163527 | 59 | 340 | 0.9 | 0.0 | 0.00 | 0.00 | 0.00 | 58 | 1013.0 |
| 20260508163034 | 60 | 340 | 0.9 | 0.0 | 0.00 | 0.00 | 0.00 | 58 | 1013.0 |
| 20260508162602 | 60 | 340 | 1.7 | 0.0 | 0.00 | 0.00 | 0.00 | 58 | 1013.0 |
| 20260508162053 | 60 | 340 | 2.6 | 0.0 | 0.00 | 0.00 | 0.00 | 58 | 1012.9 |
| 20260508161554 | 60 | 340 | 2.6 | 0.0 | 0.00 | 0.00 | 0.00 | 58 | 1012.9 |
| 20260508161032 | 60 | 340 | 3.5 | 0.0 | 0.00 | 0.00 | 0.00 | 58 | 1012.9 |
| 20260508160556 | 60 | 339 | 3.5 | 0.0 | 0.00 | 0.00 | 0.00 | 57 | 1013.1 |
| 20260508160050 | 60 | 321 | 2.6 | 0.0 | 0.00 | 0.00 | 0.00 | 57 | 1013.1 |
| 20260508155530 | 60 | 321 | 1.7 | 0.0 | 0.00 | 0.00 | 0.00 | 57 | 1013.1 |
| 20260508155032 | 60 | 35 | 0.0 | 0.0 | 0.00 | 0.00 | 0.00 | 57 | 1013.2 |
| 20260508154546 | 60 | 39 | 0.9 | 0.0 | 0.00 | 0.00 | 0.00 | 57 | 1013.2 |
| 20260508154047 | 60 | 39 | 1.7 | 0.0 | 0.00 | 0.00 | 0.00 | 57 | 1013.2 |
| 20260508153549 | 60 | 1 | 3.5 | 0.0 | 0.00 | 0.00 | 0.00 | 57 | 1013.0 |
| 20260508153036 | 61 | 337 | 4.3 | 0.0 | 0.00 | 0.00 | 0.00 | 57 | 1013.0 |
| 20260508152540 | 61 | 346 | 2.6 | 0.0 | 0.00 | 0.00 | 0.00 | 57 | 1013.0 |
| 20260508152041 | 61 | 349 | 0.9 | 0.0 | 0.00 | 0.00 | 0.00 | 56 | 1013.1 |
| 20260508151545 | 61 | 349 | 0.0 | 0.0 | 0.00 | 0.00 | 0.00 | 56 | 1013.1 |
| 20260508151032 | 61 | 349 | 0.0 | 0.0 | 0.00 | 0.00 | 0.00 | 56 | 1013.1 |
| 20260508150535 | 61 | 349 | 1.7 | 0.0 | 0.00 | 0.00 | 0.00 | 55 | 1012.9 |
| 20260508150049 | 61 | 349 | 4.3 | 0.0 | 0.00 | 0.00 | 0.00 | 55 | 1012.9 |
| 20260508145539 | 61 | 4 | 5.2 | 0.0 | 0.00 | 0.00 | 0.00 | 54 | 1012.9 |
| 20260508145043 | 61 | 358 | 5.2 | 0.0 | 0.00 | 0.00 | 0.00 | 54 | 1013.1 |
| 20260508144530 | 61 | 360 | 4.3 | 0.0 | 0.00 | 0.00 | 0.00 | 53 | 1013.1 |
| 20260508144034 | 62 | 328 | 2.6 | 0.0 | 0.00 | 0.00 | 0.00 | 53 | 1013.1 |
| 20260508143537 | 62 | 360 | 2.6 | 0.0 | 0.00 | 0.00 | 0.00 | 51 | 1013.1 |
| 20260508143042 | 63 | 347 | 2.6 | 0.0 | 0.00 | 0.00 | 0.00 | 50 | 1013.1 |
| 20260508142552 | 63 | 349 | 2.6 | 0.0 | 0.00 | 0.00 | 0.00 | 50 | 1013.1 |
| 20260508142055 | 63 | 334 | 3.5 | 0.0 | 0.00 | 0.00 | 0.00 | 50 | 1013.1 |
| 20260508141531 | 64 | 353 | 5.2 | 0.0 | 0.00 | 0.00 | 0.00 | 51 | 1013.1 |
| 20260508141045 | 64 | 353 | 7.8 | 0.0 | 0.00 | 0.00 | 0.00 | 52 | 1013.1 |
| 20260508140549 | 64 | 316 | 7.0 | 0.0 | 0.00 | 0.00 | 0.00 | 52 | 1013.3 |
| 20260508140029 | 64 | 350 | 7.0 | 0.0 | 0.00 | 0.00 | 0.00 | 52 | 1013.3 |
| 20260508135544 | 64 | 349 | 7.0 | 0.0 | 0.00 | 0.00 | 0.00 | 53 | 1013.3 |
| 20260508135044 | 64 | 18 | 8.7 | 0.0 | 0.00 | 0.00 | 0.00 | 52 | 1012.9 |
| 20260508134613 | 64 | 346 | 9.6 | 0.0 | 0.00 | 0.00 | 0.00 | 53 | 1012.9 |
| 20260508134039 | 64 | 360 | 9.6 | 0.0 | 0.00 | 0.00 | 0.00 | 53 | 1012.9 |
| 20260508133542 | 64 | 332 | 9.6 | 0.0 | 0.00 | 0.00 | 0.00 | 53 | 1012.8 |
| 20260508133048 | 64 | 345 | 8.7 | 0.0 | 0.00 | 0.00 | 0.00 | 53 | 1012.8 |
| 20260508132535 | 65 | 323 | 8.7 | 0.0 | 0.00 | 0.00 | 0.00 | 53 | 1012.8 |
| 20260508132100 | 65 | 346 | 10.4 | 0.0 | 0.00 | 0.00 | 0.00 | 52 | 1012.9 |
| 20260508131546 | 65 | 332 | 11.3 | 0.0 | 0.00 | 0.00 | 0.00 | 49 | 1012.9 |
| 20260508131049 | 65 | 334 | 10.4 | 0.0 | 0.00 | 0.00 | 0.00 | 49 | 1012.9 |
| 20260508130555 | 65 | 319 | 11.3 | 0.0 | 0.00 | 0.00 | 0.00 | 49 | 1013.0 |
| 20260508130040 | 65 | 333 | 11.3 | 0.0 | 0.00 | 0.00 | 0.00 | 46 | 1013.0 |
| 20260508125547 | 65 | 336 | 11.3 | 0.0 | 0.00 | 0.00 | 0.00 | 46 | 1013.0 |
| 20260508125030 | 65 | 5 | 11.3 | 0.0 | 0.00 | 0.00 | 0.00 | 47 | 1012.9 |
| 20260508124539 | 65 | 8 | 11.3 | 0.0 | 0.00 | 0.00 | 0.00 | 50 | 1012.9 |
| 20260508124046 | 65 | 319 | 12.2 | 0.0 | 0.00 | 0.00 | 0.00 | 50 | 1012.9 |
| 20260508123529 | 65 | 339 | 12.2 | 0.0 | 0.00 | 0.00 | 0.00 | 51 | 1012.8 |
| 20260508123031 | 65 | 335 | 11.3 | 0.0 | 0.00 | 0.00 | 0.00 | 52 | 1012.8 |
| 20260508122600 | 65 | 316 | 10.4 | 0.0 | 0.00 | 0.00 | 0.00 | 50 | 1012.8 |
| 20260508122043 | 65 | 349 | 11.3 | 0.0 | 0.00 | 0.00 | 0.00 | 49 | 1012.5 |
| 20260508121529 | 65 | 6 | 11.3 | 0.0 | 0.00 | 0.00 | 0.00 | 49 | 1012.5 |
| 20260508121036 | 65 | 54 | 12.2 | 0.0 | 0.00 | 0.00 | 0.00 | 48 | 1012.5 |
| 20260508120540 | 65 | 360 | 11.3 | 0.0 | 0.00 | 0.00 | 0.00 | 49 | 1012.3 |
| 20260508120026 | 65 | 351 | 11.3 | 0.0 | 0.00 | 0.00 | 0.00 | 48 | 1012.3 |
| 20260508115547 | 65 | 360 | 11.3 | 0.0 | 0.00 | 0.00 | 0.00 | 47 | 1012.3 |
| 20260508115032 | 65 | 360 | 11.3 | 0.0 | 0.00 | 0.00 | 0.00 | 46 | 1012.1 |
| 20260508114540 | 65 | 45 | 11.3 | 0.0 | 0.00 | 0.00 | 0.00 | 47 | 1012.1 |
| 20260508114107 | 65 | 358 | 11.3 | 0.0 | 0.00 | 0.00 | 0.00 | 46 | 1012.1 |
| 20260508113530 | 65 | 326 | 12.2 | 0.0 | 0.00 | 0.00 | 0.00 | 45 | 1012.0 |
| 20260508113037 | 65 | 360 | 10.4 | 0.0 | 0.00 | 0.00 | 0.00 | 44 | 1012.0 |
| 20260508112544 | 65 | 346 | 8.7 | 0.0 | 0.00 | 0.00 | 0.00 | 46 | 1012.0 |
| 20260508112042 | 65 | 360 | 9.6 | 0.0 | 0.00 | 0.00 | 0.00 | 45 | 1011.8 |
| 20260508111527 | 65 | 314 | 10.4 | 0.0 | 0.00 | 0.00 | 0.00 | 46 | 1011.8 |
| 20260508111034 | 65 | 336 | 10.4 | 0.0 | 0.00 | 0.00 | 0.00 | 48 | 1011.8 |
| 20260508110538 | 65 | 360 | 10.4 | 0.0 | 0.00 | 0.00 | 0.00 | 48 | 1011.6 |
| 20260508110043 | 65 | 329 | 11.3 | 0.0 | 0.00 | 0.00 | 0.00 | 49 | 1011.6 |
| 20260508105530 | 65 | 353 | 12.2 | 0.0 | 0.00 | 0.00 | 0.00 | 49 | 1011.6 |
| 20260508105034 | 65 | 310 | 11.3 | 0.0 | 0.00 | 0.00 | 0.00 | 47 | 1011.3 |
| 20260508104541 | 65 | 319 | 10.4 | 0.0 | 0.00 | 0.00 | 0.00 | 50 | 1011.3 |
| 20260508104043 | 65 | 336 | 11.3 | 0.0 | 0.00 | 0.00 | 0.00 | 50 | 1011.3 |
| 20260508103547 | 65 | 329 | 12.2 | 0.0 | 0.00 | 0.00 | 0.00 | 49 | 1011.2 |
| 20260508103032 | 65 | 360 | 13.0 | 0.0 | 0.00 | 0.00 | 0.00 | 51 | 1011.2 |
| 20260508102537 | 65 | 355 | 13.9 | 0.0 | 0.00 | 0.00 | 0.00 | 51 | 1011.2 |
| 20260508102110 | 65 | 356 | 13.0 | 0.0 | 0.00 | 0.00 | 0.00 | 51 | 1011.0 |
| 20260508101527 | 65 | 330 | 11.3 | 0.0 | 0.00 | 0.00 | 0.00 | 52 | 1011.0 |
| 20260508101042 | 65 | 360 | 11.3 | 0.0 | 0.00 | 0.00 | 0.00 | 53 | 1011.0 |
| 20260508100601 | 65 | 351 | 12.2 | 0.0 | 0.00 | 0.00 | 0.00 | 53 | 1010.8 |
| 20260508100046 | 65 | 309 | 11.3 | 0.0 | 0.00 | 0.00 | 0.00 | 52 | 1010.8 |
| 20260508095613 | 65 | 324 | 11.3 | 0.0 | 0.00 | 0.00 | 0.00 | 55 | 1010.8 |
| 20260508095036 | 65 | 314 | 13.0 | 0.0 | 0.00 | 0.00 | 0.00 | 56 | 1010.5 |
| 20260508094542 | 65 | 328 | 13.0 | 0.0 | 0.00 | 0.00 | 0.00 | 58 | 1010.5 |
| 20260508094030 | 65 | 1 | 12.2 | 0.0 | 0.00 | 0.00 | 0.00 | 56 | 1010.5 |
| 20260508093532 | 65 | 344 | 12.2 | 0.0 | 0.00 | 0.00 | 0.00 | 57 | 1010.5 |
| 20260508093039 | 65 | 338 | 12.2 | 0.0 | 0.00 | 0.00 | 0.00 | 58 | 1010.5 |
| 20260508092602 | 65 | 313 | 11.3 | 0.0 | 0.00 | 0.00 | 0.00 | 59 | 1010.5 |
| 20260508092026 | 65 | 358 | 11.3 | 0.0 | 0.00 | 0.00 | 0.00 | 62 | 1010.6 |